Simultaneous Nadir Overpasses (SNOs) Predictions

Prediction of SNOs between LANDSAT-8 and NOAA-19 Satellite Orbit:

Table of predicted SNOs for the next 14.0 days since TLE Epoch: 4/30/2022
Index Date (LANDSAT-8) Time (LANDSAT-8) Lat,Lon (LANDSAT-8) SZA (LANDSAT-8 ) Date (NOAA-19) Time (NOAA-19) Lat,Lon (NOAA-19) SZA (NOAA-19 ) Distance(km) Time Diff (sec)
1 05/01/2022 08:51:47 -80.75, -97.96 112.59 05/01/2022 08:51:51 -80.76, -97.78 112.57 3.25 4
2 05/03/2022 14:25:32 80.76, -1.31 66.77 05/03/2022 14:24:46 80.76, -1.15 66.77 3.07 46
3 05/03/2022 15:14:59 -80.76, 166.32 113.25 05/03/2022 15:15:49 -80.76, 166.37 113.22 0.84 50
4 05/05/2022 20:48:43 80.77, -96.88 66.16 05/05/2022 20:48:44 80.76, -96.91 66.15 1.69 1
5 05/08/2022 02:22:28 -80.78, -0.28 114.45 05/08/2022 02:21:46 -80.77, -0.36 114.48 1.86 42
6 05/08/2022 03:11:55 80.75, 167.03 65.50 05/08/2022 03:12:43 80.77, 166.92 65.52 2.76 48
7 05/10/2022 08:45:39 -80.77, -96.18 115.06 05/10/2022 08:45:43 -80.76, -96.02 115.05 2.96 4
8 05/12/2022 14:19:22 80.77, 0.39 64.38 05/12/2022 14:18:40 80.77, 0.31 64.36 1.68 42



Historial Predications of SNOs between LANDSAT-8 and NOAA-19
